Simultaneous Nadir Overpasses (SNOs) Predictions

Prediction of SNOs between GOES-17 and TERRA Satellite Orbit:

Table of predicted SNOs for the next 14.0 days since TLE Epoch: 8/1/2020
Index Date Time (GOES-17) GOES-17 Lat,Lon TERRA Lat,Lon Distance(km) Time Diff (sec)
1 08/02/2020 07:34:18 0.03,-137.20 0.21,-136.34 97.45 80
2 08/02/2020 19:55:32 -0.03,-137.20 0.92,-141.49 488.54 80
3 08/04/2020 07:22:07 0.02,-137.20 0.86,-133.39 433.74 80
4 08/04/2020 19:43:21 -0.02,-137.20 0.27,-138.54 152.30 80
5 08/06/2020 19:33:50 -0.02,-137.20 -0.37,-135.58 183.56 80
6 08/07/2020 07:55:14 0.02,-137.19 -0.75,-140.77 407.06 80
7 08/09/2020 07:43:03 0.02,-137.19 -0.10,-137.82 71.71 80
8 08/11/2020 07:28:11 0.02,-137.17 0.49,-134.85 263.14 80
9 08/11/2020 19:49:27 -0.02,-137.17 0.58,-140.02 323.56 80
10 08/13/2020 19:39:55 -0.01,-137.15 -0.00,-137.05 10.75 80
